User: anonymous   Login
Location: *
(51.2167°N, 10.0667°E)
Time: 07:22:18
(UTC+00:00)
Language:

YAOGAN 1 - Orbit

View from above orbital plane
View from above orbital plane
View from above satellite
View from above satellite

Ground track
Ground track

The orbit data is extracted from the following two-line orbital elements,

1 29092U 06015A   20050.09831356  .00000059  00000-0  13813-4 0  9990
2 29092  97.9524  75.1075 0001398  93.1345 267.0029 14.83043334747143
Epoch (UTC): 19 February 2020 02:21:34
Eccentricity: 0.0001398
inclination: 97.9524°
perigee height: 619 km
apogee height: 621 km
right ascension of ascending node: 75.1075°
argument of perigee: 93.1345°
revolutions per day: 14.83043334
mean anomaly at epoch: 267.0029°
orbit number at epoch: 74714

The dashed part of the orbit path shows where the satellite is in the earth's shadow,  

DLR